TimeCST,TemperatureF,Dew PointF,Humidity,Sea Level PressureIn,VisibilityMPH,Wind Direction,Wind SpeedMPH,Gust SpeedMPH,PrecipitationIn,Events,Conditions,WindDirDegrees,DateUTC
12:15 AM,10.4,5.0,79,30.14,10.0,SW,8.1,-,0.00,,Partly Cloudy,230,2013-01-23 06:15:00
12:35 AM,8.6,5.0,85,30.13,10.0,WSW,8.1,-,0.00,,Mostly Cloudy,240,2013-01-23 06:35:00
1:35 AM,10.4,6.8,85,30.13,10.0,WSW,8.1,-,0.00,,Overcast,250,2013-01-23 07:35:00
1:55 AM,10.4,6.8,85,30.12,10.0,WSW,8.1,-,0.00,,Overcast,250,2013-01-23 07:55:00
2:15 AM,10.4,6.8,85,30.12,10.0,WSW,9.2,-,0.00,,Overcast,250,2013-01-23 08:15:00
2:35 AM,10.4,6.8,85,30.13,10.0,West,8.1,-,0.00,,Overcast,260,2013-01-23 08:35:00
2:55 AM,10.4,6.8,85,30.14,10.0,West,8.1,-,0.00,,Overcast,260,2013-01-23 08:55:00
3:55 AM,8.6,3.2,79,30.14,10.0,West,10.4,-,0.00,,Clear,270,2013-01-23 09:55:00
4:15 AM,8.6,3.2,79,30.15,10.0,West,9.2,-,0.00,,Clear,280,2013-01-23 10:15:00
4:35 AM,10.4,5.0,79,30.16,10.0,NW,12.7,-,0.00,,Clear,310,2013-01-23 10:35:00
4:55 AM,8.6,3.2,79,30.16,10.0,NW,11.5,-,0.00,,Clear,310,2013-01-23 10:55:00
5:15 AM,8.6,3.2,79,30.17,10.0,NW,12.7,-,0.00,,Clear,320,2013-01-23 11:15:00
5:35 AM,8.6,3.2,79,30.18,10.0,NW,12.7,-,0.00,,Clear,320,2013-01-23 11:35:00
5:55 AM,8.6,1.4,73,30.18,10.0,NNW,13.8,-,0.00,,Clear,340,2013-01-23 11:55:00
6:15 AM,8.6,1.4,73,30.20,10.0,NNW,10.4,-,0.00,,Clear,330,2013-01-23 12:15:00
6:55 AM,6.8,1.4,79,30.22,10.0,NNW,12.7,-,0.00,,Clear,330,2013-01-23 12:55:00
7:15 AM,5.0,-0.4,78,30.23,10.0,NW,12.7,-,0.00,,Clear,310,2013-01-23 13:15:00
7:35 AM,5.0,-0.4,78,30.24,10.0,NW,10.4,-,0.00,,Clear,310,2013-01-23 13:35:00
7:55 AM,5.0,-0.4,78,30.25,10.0,NNW,12.7,-,0.00,,Clear,330,2013-01-23 13:55:00
8:15 AM,3.2,-2.2,78,30.26,10.0,NNW,12.7,-,0.00,,Clear,330,2013-01-23 14:15:00
8:35 AM,3.2,-4.0,72,30.28,10.0,NNW,12.7,18.4,0.00,,Clear,340,2013-01-23 14:35:00
8:55 AM,3.2,-4.0,72,30.29,10.0,NNW,16.1,-,0.00,,Clear,340,2013-01-23 14:55:00
9:15 AM,3.2,-4.0,72,30.31,10.0,NNW,19.6,25.3,0.00,,Clear,340,2013-01-23 15:15:00
9:35 AM,3.2,-4.0,72,30.33,10.0,North,15.0,-,0.00,,Clear,350,2013-01-23 15:35:00
9:55 AM,3.2,-5.8,66,30.34,10.0,North,16.1,23.0,0.00,,Clear,350,2013-01-23 15:55:00
10:15 AM,3.2,-5.8,66,30.36,10.0,North,17.3,-,0.00,,Clear,350,2013-01-23 16:15:00
10:35 AM,3.2,-5.8,66,30.37,10.0,North,13.8,19.6,0.00,,Clear,360,2013-01-23 16:35:00
10:55 AM,5.0,-5.8,61,30.38,10.0,North,17.3,-,0.00,,Clear,350,2013-01-23 16:55:00
11:15 AM,5.0,-5.8,61,30.40,10.0,North,17.3,-,0.00,,Clear,350,2013-01-23 17:15:00
11:35 AM,5.0,-5.8,61,30.40,10.0,North,20.7,-,0.00,,Partly Cloudy,360,2013-01-23 17:35:00
11:55 AM,5.0,-5.8,61,30.40,10.0,North,21.9,-,0.00,,Clear,360,2013-01-23 17:55:00
12:15 PM,3.2,-5.8,66,30.41,9.0,North,19.6,25.3,0.00,,Clear,360,2013-01-23 18:15:00
12:35 PM,3.2,-5.8,66,30.42,10.0,North,18.4,21.9,0.00,,Clear,350,2013-01-23 18:35:00
12:55 PM,3.2,-7.6,61,30.43,10.0,North,17.3,-,0.00,,Partly Cloudy,360,2013-01-23 18:55:00
1:15 PM,5.0,-5.8,61,30.43,10.0,North,18.4,23.0,0.00,,Clear,360,2013-01-23 19:15:00
1:35 PM,5.0,-7.6,56,30.43,10.0,North,18.4,26.5,0.00,,Scattered Clouds,360,2013-01-23 19:35:00
1:55 PM,5.0,-7.6,56,30.43,9.0,North,18.4,25.3,0.00,,Scattered Clouds,350,2013-01-23 19:55:00
2:15 PM,5.0,-7.6,56,30.43,10.0,North,18.4,-,0.00,,Partly Cloudy,350,2013-01-23 20:15:00
2:35 PM,5.0,-7.6,56,30.45,10.0,North,16.1,-,0.00,,Partly Cloudy,360,2013-01-23 20:35:00
2:55 PM,3.2,-9.4,56,30.45,10.0,North,18.4,24.2,0.00,,Clear,350,2013-01-23 20:55:00
3:15 PM,3.2,-9.4,56,30.47,10.0,North,20.7,24.2,0.00,,Clear,360,2013-01-23 21:15:00
3:35 PM,3.2,-9999,N/A,30.48,10.0,North,19.6,-,0.00,,Clear,360,2013-01-23 21:35:00
3:55 PM,3.2,-11.2,51,30.49,10.0,North,17.3,-,0.00,,Clear,360,2013-01-23 21:55:00
4:15 PM,3.2,-9.4,56,30.51,5.0,NNE,18.4,-,0.00,,Partly Cloudy,20,2013-01-23 22:15:00
4:35 PM,1.4,-7.6,66,30.52,1.5,NNE,16.1,-,0.00,,Overcast,20,2013-01-23 22:35:00
4:55 PM,-0.4,-7.6,72,30.54,8.0,North,13.8,-,0.00,,Mostly Cloudy,10,2013-01-23 22:55:00
5:15 PM,-0.4,-9.4,66,30.54,10.0,North,13.8,-,0.00,,Scattered Clouds,10,2013-01-23 23:15:00
5:35 PM,-0.4,-9999,N/A,30.54,10.0,North,11.5,-,0.00,,Clear,10,2013-01-23 23:35:00
5:55 PM,-2.2,-11.2,66,30.54,10.0,North,13.8,-,0.00,,Scattered Clouds,10,2013-01-23 23:55:00
6:15 PM,-4.0,-13.0,65,30.55,10.0,NNE,11.5,-,0.00,,Partly Cloudy,20,2013-01-24 00:15:00
6:35 PM,-4.0,-13.0,65,30.56,10.0,NNE,9.2,-,0.00,,Clear,30,2013-01-24 00:35:00
6:55 PM,-4.0,-13.0,65,30.55,10.0,NNE,8.1,-,0.00,,Clear,30,2013-01-24 00:55:00
7:15 PM,-4.0,-13.0,65,30.56,10.0,NNE,9.2,-,0.00,,Scattered Clouds,30,2013-01-24 01:15:00
7:35 PM,-5.8,-13.0,71,30.57,10.0,NNE,12.7,-,0.00,,Scattered Clouds,30,2013-01-24 01:35:00
7:55 PM,-5.8,-14.8,65,30.56,10.0,NE,10.4,-,0.00,,Partly Cloudy,40,2013-01-24 01:55:00
8:15 PM,-5.8,-14.8,65,30.56,7.0,NE,11.5,-,0.00,,Mostly Cloudy,40,2013-01-24 02:15:00
8:35 PM,-5.8,-14.8,65,30.57,10.0,NE,9.2,-,0.00,,Partly Cloudy,40,2013-01-24 02:35:00
8:55 PM,-7.6,-14.8,71,30.58,10.0,NE,10.4,-,0.00,,Clear,40,2013-01-24 02:55:00
9:15 PM,-7.6,-16.6,65,30.59,10.0,NE,10.4,-,0.00,,Clear,40,2013-01-24 03:15:00
9:35 PM,-7.6,-16.6,65,30.59,10.0,NE,9.2,-,0.00,,Clear,40,2013-01-24 03:35:00
9:55 PM,-7.6,-18.4,59,30.59,10.0,ENE,8.1,-,0.00,,Clear,60,2013-01-24 03:55:00
10:15 PM,-7.6,-18.4,59,30.61,10.0,NE,10.4,-,0.00,,Clear,40,2013-01-24 04:15:00
10:35 PM,-9.4,-18.4,65,30.61,10.0,NE,11.5,-,0.00,,Clear,50,2013-01-24 04:35:00
10:55 PM,-9.4,-22.0,54,30.62,10.0,NNE,12.7,-,0.00,,Clear,30,2013-01-24 04:55:00
11:15 PM,-9.4,-22.0,54,30.61,10.0,NE,8.1,-,0.00,,Clear,40,2013-01-24 05:15:00
11:55 PM,-9.4,-22.0,54,30.60,10.0,NE,12.7,-,0.00,,Clear,50,2013-01-24 05:55:00